Regional Weather Roundup
Issued by NWS Grand Forks, ND

Home | Current Version | Previous Version | Text Only | Print | Product List | Glossary Off
Versions: 1 2 3 4 5 6 7 8 9 10 11 12 13 14 15 16 17 18 19 20 21 22 23 24 25 26 27 28 29 30 31 32 33 34 35 36 37 38 39 40 41 42 43 44 45 46 47 48 49 50

000
ASUS43 KFGF 311510
RWRFGF
PRAIRIE TO PINES  WEATHER ROUNDUP
NATIONAL WEATHER SERVICE EASTERN NORTH DAKOTA/GRAND FORKS ND
1000 AM CDT THU JUL 31 2014

 **SATELLITE DATA USED TO AUGMENT SKY COVER AT AUTOMATED STATIONS**
 *****  WEATHER ACROSS EASTERN NORTH DAKOTA  *****

CITY           SKY/WX    TMP DP  RH WIND       PRES   REMARKS
GRAND FORKS    SUNNY     77  57  50 NW7       30.02S
GRAND FRKS AFB SUNNY     72  64  75 N5        30.04S
GRAND FRKS NWS   N/A     70 N/A N/A MISG        N/A
DEVILS LAKE    SUNNY     70  59  68 NW5       30.06S
FARGO          SUNNY     73  59  61 CALM      30.04S
WAHPETON ARPT  SUNNY     68  55  64 CALM      30.06S
$$

 ***** WEATHER ACROSS CENTRAL AND WESTERN NORTH DAKOTA  *****

CITY           SKY/WX    TMP DP  RH WIND       PRES   REMARKS
BISMARCK       SUNNY     72  58  61 S3        30.11S
MINOT          SUNNY     72  55  55 NE3       30.08S
JAMESTOWN      SUNNY     73  59  61 NW6       30.08S
MINOT AFB      SUNNY     71  56  59 VRB2      30.08S
GARRISON         N/A     72  62  71 VRB5      30.09S
WILLISTON      PTSUNNY   69  57  65 S5        30.08S
DICKINSON      PTSUNNY   72  58  61 S9        30.10S
HETTINGER      PTSUNNY   71  59  65 W6        30.14F
$$

 *****  OTHER AIRPORT OBSERVATIONS IN OUR AREA  *****

CITY           SKY/WX    TMP DP  RH WIND       PRES   REMARKS
WALHALLA       NOT AVBL
GRAFTON AIRPOR FAIR      72  63  73 N5        30.03S
VALLEY CITY AR FAIR      72  61  68 NW5       30.08S
CANDO          NOT AVBL
CAVALIER APRT  FAIR      72  63  73 N3        30.03S
GWINNER        SUNNY     73  57  56 NW8       30.08S
ROLLA          NOT AVBL
 ***** THE ABOVE OBSERVATIONS ARE NON NWS ARE NOT QUALITY
       CONTROLLED AND MAY MIS-REPORT RAIN FOR SNOW...
$$

  *****  WEATHER ACROSS NORTHERN MINNESOTA  *****

CITY           SKY/WX    TMP DP  RH WIND       PRES   REMARKS
FLAG ISLAND    MOSUNNY   70  57  64 NW5       30.01S
WARROAD        SUNNY     72  61  68 CALM      30.02S
ROSEAU         SUNNY     70  63  78 NE3       30.02S
HALLOCK        SUNNY     70  63  78 NW3       30.02S
THF RVR FALLS  SUNNY     70  63  78 CALM      30.03S
BAUDETTE       SUNNY     72  61  68 N5        30.02S
WASKISH        SUNNY     68  63  83 CALM      30.01F
CROOKSTON      SUNNY     68  63  83 NW5       30.03S
$$
  *****  WEATHER ACROSS CENTRAL AND WEST MINNESOTA  *****

CITY           SKY/WX    TMP DP  RH WIND       PRES   REMARKS
FOSSTON        SUNNY     70  61  73 CALM      30.04S
BEMIDJI        SUNNY     72  58  61 W8        30.02F
PARK RAPIDS    SUNNY     73  57  57 W10       30.03F
ELBOW LAKE     FAIR      66  59  77 CALM      30.06S
WADENA         SUNNY     72  57  60 NW5       30.04F
DETROIT LAKES  SUNNY     72  57  60 NW6       30.06S
MOORHEAD       SUNNY     70  64  83 CALM      30.05S
FERGUS FALLS   SUNNY     70  59  68 W3        30.05S
MORRIS MN      SUNNY     72  61  68 W5        30.05F
STAPLES        MOSUNNY   72  55  56 NW8       30.04F
$$
  *****  WEATHER ELSEWHERE ACROSS MINNESOTA  *****

CITY           SKY/WX    TMP DP  RH WIND       PRES   REMARKS
DULUTH         SUNNY     73  57  57 CALM      30.00S
INTRNTL FALLS  SUNNY     70  58  65 N8        30.00S
ELY            SUNNY     64  59  82 NW3       29.99S
CLOQUET        SUNNY     70  59  68 NW5       30.00S
WHEATON        SUNNY     70  57  64 W6        30.08S
BRAINERD       SUNNY     70  58  65 NW7       30.03F
HIBBING        SUNNY     73  59  61 NW3       30.00F
ALEXANDRIA     MOSUNNY   72  57  59 NW5       30.07F
SAINT CLOUD    MOSUNNY   76  57  51 VRB5      30.04S
MINNEAPOLIS    MOSUNNY   73  56  54 W6        30.04F
$$

  *****  WEATHER ACROSS SOUTH DAKOTA  *****

CITY           SKY/WX    TMP DP  RH WIND       PRES   REMARKS
SIOUX FALLS    PTSUNNY   72  59  63 CALM      30.09S
BROOKINGS      NOT AVBL
WATERTOWN      SUNNY     73  56  54 NE3       30.08F
HURON          PTSUNNY   67  59  75 VRB3      30.08S
SISSETON         N/A     75  62  64 N5        30.06S
ABERDEEN       PTSUNNY   75  56  51 CALM      30.08F
MITCHELL       MOSUNNY   72  65  78 NE9       30.08S
PIERRE         MOSUNNY   72  56  57 NE7       30.10R
MOBRIDGE         N/A     71  60  68 S8        30.08S
RAPID CITY     SUNNY     76  52  43 N6        30.18R
$$

  *****  SOME WEATHER IN NEARBY STATES *****

CITY           SKY/WX    TMP DP  RH WIND       PRES   REMARKS
GLASGOW MT     SUNNY     77  49  37 SE18      30.04F
GREAT FALLS MT SUNNY     71  45  39 SW7       30.15R
CHEYENNE WY    SUNNY     65  49  56 CALM      30.33S
SCOTTSBLUFF NE SUNNY     69  57  65 W7        30.23R
OMAHA NE       MOSUNNY   73  56  54 S5        30.11S
DES MOINES IA  SUNNY     73  60  63 W5        30.10S
DAVENPORT IA   SUNNY     72  62  71 W5        30.09S
CHICAGO IL     SUNNY     75  57  53 W8        30.04R
EAU CLAIRE WI  SUNNY     71  61  70 W8        30.01F
LA CROSSE WI   SUNNY     72  61  68 CALM      30.04R
$$

  *****  SOME NATIONAL WEATHER *****

CITY           SKY/WX    TMP DP  RH WIND       PRES   REMARKS
LA GUARDIA NY  PTSUNNY   77  56  48 SW14G20   30.10S
RALEIGH NC     CLOUDY    77  68  73 SE5       30.15R
ATLANTA GA     CLOUDY    75  68  78 E5        30.08R
NEW ORLEANS LA PTSUNNY   86  67  52 NE8       30.04S
OKLAHOMA CITY  DRIZZLE   68  66  93 E9        30.08S FOG
ALBUQUERQUE NM PTSUNNY   69  57  65 NE6       30.30S
SALT LAKE CITY MOSUNNY   71  53  52 CALM      30.19R
LOS ANGELES CA MOSUNNY   70  63  78 CALM      29.94R
BOISE ID       SUNNY     76  47  35 CALM      30.13R
SEATTLE WA     MOSUNNY   68  48  48 N8        30.13R
$$

*** WEATHER ACROSS MANITOBA...SASKATCHEWAN AND ONTARIO ***
                ***ONTARIO***

CITY           SKY/WX    TMP DP  RH WIND       PRES   REMARKS
GERALDTON      CLOUDY    57  52  82 NW12      29.86R
THUNDER BAY    MOSUNNY   70  52  52 W12       29.93S
SIOUX LOOKOUT  MOSUNNY   64  52  63 NW7       30.00S
TORONTO        MOSUNNY   66  52  59 SE3       30.00S
BIG TROUT LK   SUNNY     61  46  59 NW9G18    29.97F
PICKLE LAKE    PTSUNNY   57  50  77 NE6       29.98R
DRYDEN         NOT AVBL
KENORA         NOT AVBL
$$
                *** MANITOBA***

CITY           SKY/WX    TMP DP  RH WIND       PRES   REMARKS
BRANDON        MOSUNNY   73  63  68 CALM      30.07F
DAUPHIN        SUNNY     70  61  73 SW3       30.06F
ISLAND LAKE    MOSUNNY   64  52  63 E2        30.09F
PILOT MOUND      N/A     68  61  77 NW6         N/A
THE PAS        MOSUNNY   75  61  60 W8        30.02S
THOMPSON       NOT AVBL
WINNIPEG       SUNNY     72  63  73 NW3       30.03S
CHURCHILL      MOSUNNY   63  50  63 SE3       30.10F
GILLAM         CLOUDY    63  50  63 CALM      30.11F
$$
                ***SASKATCHEWAN***

CITY           SKY/WX    TMP DP  RH WIND       PRES   REMARKS
ESTEVAN        PTSUNNY   73  59  60 SE5       30.10R
KINDERSLEY     NOT AVBL
LLOYDMINSTER   NOT AVBL
PRINCE ALBERT  MOSUNNY   72  64  78 E3        30.08R
REGINA         MOSUNNY   72  59  64 SE10      30.07S
YORKTON        NOT AVBL
N. BATTLEFORD    N/A     72  63  73 SE8       30.08R
LA RONGE       NOT AVBL
SASKATOON      PTSUNNY   73  59  60 SE8       30.07S
SWIFT CURRENT  NOT AVBL
$$
NOTE: THESE ARE AUTOMATED STATIONS WITH LIMITED QUALITY CONTROL
      "FAIR" INDICATES FEW OR NO CLOUDS BELOW 12,000 FEET WITH NO
      SIGNIFICANT WEATHER AND/OR OBSTRUCTIONS TO VISIBILITY.
      SKY/WX - SKY CONDITION AND SIGNIFICANT WEATHER.
      TMP - AIR TEMPERATURE.    DP   - DEWPOINT TEMPERATURE.
      RH  - RELATIVE HUMIDITY.  PRES - PRESSURE.
      HX  - HEAT INDEX.         WCI  - WIND CHILL INDEX.
$


USA.gov is the U.S. government's official web portal to all federal, state and local government web resources and services.